Location: La Tine
(46.4708°N, 7.0525°E)
Time: 02:02:26
(UTC+00:00)

ATLAS 3B R/B - Pass Details

Date: 18 September 2020
Orbit: 1016 x 1179 km, 63.8° (Epoch: 28 October)

Event Time Altitude Azimuth Distance (km) Brightness Sun altitude
Rises 19:31:07 0° 319° (NW) 3,807 6.8 -19.9°
Reaches altitude 10° 19:34:04 10° 330° (NNW) 2,872 5.7 -20.3°
Maximum altitude 19:40:01 31° 31° (NNE) 1,790 3.8 -21.3°
Enters shadow 19:42:49 24° 69° (ENE) 2,101 3.9 -21.7°
